METEOR 1-17 DEB

Satellite information

Favourite Embed

Satellite Type and Status

DEBRISIN ORBIT

Key statistics

Satellite METEOR 1-17 DEB at a glance.

Uptime

18700

Days in orbit

Revolutions

≈ 14.2

Per day

Orbit

LEO

Low Earth Orbit

Inclination

81.2

Latest

Satellite identification and parameters

Extended collection of information and parameters for METEOR 1-17 DEB.

Object identification

Identified? True

Debris? True

Object name: METEOR 1-17 DEB

International designator: 1974-025E

Object number (NORAD): 57539

Object ID (CCSDS): 57539

Country: COMMONWEALTH OF INDEPENDENT STATES (CIS)

Current information (Y/N): Y

RCS size: SMALL

Orbital parameters

Period: 101.641 minutes

Inclination: 81.2088 deg

SMA: 7214.511 km

Apoapsis: 841.632 km

Periapsis: 831.119 km

RAAN: 272.0827 deg

Eccentricy: 0.0007286

Argument of periapsis: 190.0481 deg

Mean anomaly: 170.0549 deg

Mean motion: 14.16747411 rev/day

Mean motion (dot): 0.00001963 rev/day2

B* drag term: 0.00097584 1/REarth

Two-line elements (TLE)

Creation date: July 4, 2025, 6:39 p.m.

Reference frame: TEME

Reference center: EARTH

Epoch: July 4, 2025, 12:39 p.m. UTC

TLE line 0: 0 METEOR 1-17 DEB

TLE line 1: 1 57539U 74025E 25185.52762186 .00001963 00000-0 97584-3 0 9990

TLE line 2: 2 57539 81.2088 272.0827 0007286 190.0481 170.0549 14.16747411100892

Live tracking on map

Real-time ground track for satellite METEOR 1-17 DEB.

In-orbit conjunctions

A list of the most updated potential collisions computed for object METEOR 1-17 DEB.

Target Orbit TCA Probability of collision Miss distance Type
CZ-6A DEB SSO 2024-11-11 06:45:26 0.0006327079 476.0 (m) DEBRIS
NOAA 14 SSO 2024-11-10 09:31:45 0.0001729734 394.0 (m) PAYLOAD
SCOUT A R/B SSO 2024-10-29 05:08:47 0.0001191689 356.0 (m) ROCKET BODY
CZ-6A DEB LEO 2024-10-28 12:48:20 0.0003915679 293.0 (m) DEBRIS

Associated space launch

The Meteor-1 series was the first series of Soviet meteorological satellites.

METEOR 1-17 DEB was lifted into orbit during the mission ‘Vostok 8A92M | Meteor-1 17 (22L)’, on board a Vostok 8A92M space rocket.

The launch took place on April 24, 1974, 11:50 a.m. from 43/4 (43R).

For more information about the launch, click the button.

Launch to space Vostok 8A92M | Meteor-1 17 (22L)
Vostok 8A92M | Meteor-1 17 (22L)

Agency: N/A

Status: Launch Successful

Launch date: April 24, 1974, 11:50 a.m. UTC

Rocket: Vostok 8A92M

Launch pad: 43/4 (43R)

Location: Plesetsk Cosmodrome, Russian Federation

...

Latest news about this satellite

There are no fresh news available about this satellite. Check back as we update our databases every day.


Newsletter sign-up

Weekly statistics, charts and insights to help you stay on top of the space industry.